User: anonymous   Login
Location: Four Corners
(38.2757°N, 122.4608°W)
Time: 09:47:08
(UTC+00:00)
Language:

FengYun 1-2 T - Orbit

View from above orbital plane
View from above orbital plane
View from above satellite
View from above satellite

Ground track
Ground track

The orbit data is extracted from the following two-line orbital elements,

1 20855U 90081T   20055.59720337 -.00000014  00000-0  16624-4 0  9995
2 20855  98.7192  74.7357 0024321 166.2180 346.3842 14.08673394515070
Epoch (UTC): 24 February 2020 14:19:58
Eccentricity: 0.0024321
inclination: 98.7192°
perigee height: 846 km
apogee height: 881 km
right ascension of ascending node: 74.7357°
argument of perigee: 166.2180°
revolutions per day: 14.08673394
mean anomaly at epoch: 346.3842°
orbit number at epoch: 51507

The dashed part of the orbit path shows where the satellite is in the earth's shadow,  

DLR